Wind_Speed
40 40 40 40 40 39 40 41 42 42 43 45 46 46 46 47 48 48 47 46 44 43 40 34 31 29 29 28 26 24 21 18 16 14 11 9 8 5 3 4 5 8 10 11 14 17 19 20 22 25 27 28 27 25 24 22 20 19 18 17 16 14 13 12 11 11 11 11 11 11 11 11 10 11 12 13 13 13 14 15 16 17 18 21 22 22
41 41 41 41 41 40 40 41 41 41 43 45 46 46 47 47 48 49 48 47 46 45 42 38 36 32 29 28 27 25 24 21 18 16 13 9 9 8 3 2 3 5 9 10 11 14 16 19 21 22 25 27 27 25 23 22 20 19 19 18 17 16 15 14 13 12 12 11 12 12 12 12 12 13 14 14 14 14 16 18 19 20 23 25 26 27
42 42 41 41 41 41 41 41 41 41 42 44 47 47 47 48 49 50 50 49 49 48 45 42 39 36 32 30 29 27 25 24 20 19 16 12 11 10 6 3 2 3 6 8 9 12 14 17 19 20 23 25 26 25 23 21 20 19 19 19 18 17 16 15 15 14 14 13 14 14 13 14 14 15 15 16 17 18 19 21 23 25 26 27 28 29
42 42 42 42 42 42 42 42 41 42 42 44 46 47 47 49 50 50 51 50 50 49 48 46 42 39 35 32 31 28 26 25 22 21 19 15 13 12 8 5 2 1 3 6 8 9 12 14 16 18 21 23 25 24 23 21 20 19 19 19 19 18 16 15 15 16 16 16 16 16 17 17 17 16 17 18 20 21 21 22 25 27 27 28 30 31
42 42 43 43 42 42 42 42 42 43 43 44 45 46 47 50 51 51 51 51 50 49 48 47 44 42 40 36 33 29 26 26 24 23 21 17 16 14 11 7 4 1 1 3 5 7 10 12 14 16 18 21 23 24 23 20 19 19 19 19 19 18 18 16 16 17 17 17 18 19 19 19 19 19 20 21 22 23 23 22 23 25 27 29 31 32
42 42 42 42 43 43 43 43 43 44 45 45 45 45 47 49 50 50 51 50 50 50 49 48 43 41 43 41 37 33 28 26 26 25 23 20 18 16 12 9 7 4 1 0 2 4 7 9 11 14 16 18 21 22 22 20 19 18 18 18 18 18 19 18 18 19 19 19 20 20 20 20 19 20 22 24 24 25 26 26 25 25 27 29 30 30
41 41 41 42 43 44 43 43 44 45 46 46 45 45 46 48 49 49 50 51 51 50 50 51 47 42 42 43 41 38 31 26 27 27 24 23 21 17 14 12 9 6 3 2 0 2 4 7 9 11 14 16 18 20 21 20 19 17 17 17 17 17 18 19 19 20 20 20 20 20 20 20 20 20 21 24 25 26 27 28 28 29 30 31 29 28
38 39 40 41 43 43 43 44 44 45 46 46 45 46 46 47 48 48 50 53 53 52 53 53 52 49 45 43 43 40 33 27 29 30 26 25 23 19 16 14 11 8 6 4 2 1 2 4 7 9 11 14 16 18 19 20 19 18 17 16 16 16 17 18 18 19 19 19 19 20 21 22 22 23 22 22 23 25 26 27 28 31 32 31 29 28
35 36 39 40 41 42 43 44 44 46 46 45 45 47 48 48 48 48 51 54 55 57 58 55 53 53 50 46 44 41 35 31 32 33 30 28 25 22 20 16 13 11 8 7 4 2 2 1 4 6 9 12 14 16 18 18 18 18 17 16 15 16 16 17 18 18 18 19 19 20 22 23 24 25 25 24 25 26 27 28 29 30 30 29 29 30
32 33 36 37 38 40 42 43 44 46 45 44 45 47 48 49 49 48 51 54 56 58 60 57 53 53 51 48 44 41 38 36 37 36 32 30 27 24 23 19 15 13 11 9 7 5 4 2 1 4 6 9 12 14 16 17 17 18 17 16 15 15 16 16 17 18 18 18 19 19 21 22 23 23 24 25 26 27 28 29 29 29 29 29 29 30
30 31 33 34 35 37 40 42 43 45 44 44 46 48 48 50 50 50 51 53 55 58 60 59 57 55 52 48 45 41 40 40 39 37 33 31 29 27 25 22 17 14 14 12 10 8 6 5 2 2 4 6 9 12 14 15 16 17 17 16 15 15 15 16 17 18 18 19 19 20 21 23 22 23 24 25 25 26 27 27 27 28 28 28 28 28
29 29 30 32 33 34 37 39 41 43 44 44 46 47 48 50 51 51 52 52 54 57 60 60 59 59 55 51 46 43 43 43 41 39 36 32 30 28 28 25 21 17 17 15 12 10 8 7 6 4 2 4 6 8 12 14 15 16 17 17 15 14 15 15 16 17 17 18 19 20 21 22 23 23 24 24 24 25 25 25 25 26 27 27 27 26
28 29 29 31 32 33 35 36 38 40 42 44 46 47 48 49 51 52 53 53 54 56 60 61 60 60 58 54 51 48 46 43 41 40 38 34 31 30 29 28 25 22 20 18 16 13 11 10 9 7 4 2 3 5 9 12 13 14 16 17 16 14 14 14 15 15 16 17 18 19 20 21 21 22 23 23 23 23 23 23 24 24 25 25 25 23
27 28 29 31 31 32 33 34 36 37 40 43 45 46 48 49 50 52 53 54 55 56 59 61 59 60 59 56 55 54 50 46 42 41 39 36 34 32 31 30 29 26 23 20 19 16 14 13 11 10 8 5 3 3 6 10 12 13 15 16 16 15 13 13 14 15 15 16 17 17 18 19 20 21 22 22 22 22 22 22 22 21 22 22 23 23
26 26 28 30 31 31 32 34 35 37 39 41 42 45 47 47 49 52 53 55 56 55 57 59 59 59 60 59 59 58 54 49 44 42 41 40 37 35 33 32 31 29 25 23 22 20 17 16 14 12 11 9 7 5 4 7 11 12 13 15 16 16 14 13 13 14 15 16 16 16 17 18 19 19 20 20 21 21 21 20 19 19 20 20 21 23
27 27 29 30 30 31 32 34 35 37 38 39 41 44 45 46 50 52 53 55 56 55 57 59 58 59 60 61 63 61 57 52 46 43 44 43 40 38 36 34 33 32 28 25 25 24 20 18 16 14 13 11 9 8 5 5 8 10 12 13 14 15 15 13 12 12 14 15 15 16 16 17 17 18 18 19 19 19 19 18 17 18 20 20 21 23
28 28 29 30 30 32 33 34 35 36 38 39 41 42 43 46 49 51 52 55 56 56 58 59 59 60 61 63 65 65 63 58 51 47 46 45 43 41 39 37 36 35 33 30 29 27 24 20 18 16 15 13 12 10 8 5 6 9 11 12 13 14 15 14 13 12 13 14 15 15 16 16 17 17 17 17 18 17 16 16 16 18 19 20 20 20
29 28 29 30 31 32 34 34 34 36 37 39 41 42 43 45 47 49 52 53 54 57 59 60 61 62 63 64 65 67 67 63 57 52 50 47 45 43 42 40 39 39 38 36 33 29 26 23 21 19 17 15 14 13 12 9 6 8 10 11 11 12 13 14 14 13 12 13 14 14 15 16 16 16 16 16 16 16 16 16 17 18 19 19 19 18
30 30 31 32 32 34 35 34 33 35 37 39 41 43 44 45 46 48 51 52 54 56 59 61 62 62 63 64 65 67 68 66 61 56 52 48 44 44 46 44 41 41 41 39 35 31 29 26 23 21 18 17 16 14 14 12 9 8 8 10 10 10 11 13 14 14 13 13 13 13 14 15 15 15 16 16 16 15 15 16 17 17 17 17 17 17
32 32 33 34 33 35 35 32 31 34 37 38 41 43 44 46 47 48 50 51 53 55 58 61 62 62 63 64 65 67 68 67 64 59 55 51 44 44 49 47 44 43 42 40 37 34 32 29 26 23 21 19 18 16 15 15 13 10 9 9 10 10 10 11 13 13 14 13 13 13 13 14 15 15 15 15 15 16 16 16 16 16 16 16 16 16
33 34 36 36 35 35 34 32 31 33 35 37 39 42 45 47 48 49 49 51 53 55 58 61 62 63 64 64 64 65 66 67 67 62 59 56 48 45 50 50 47 45 43 41 38 35 33 31 28 25 23 20 20 19 17 17 16 14 12 10 10 10 10 10 11 12 13 13 13 13 13 13 14 14 14 15 15 15 16 16 16 15 15 15 15 14
33 35 38 37 36 35 33 32 31 31 33 34 36 40 43 46 49 50 50 51 53 55 58 60 62 64 65 64 64 64 65 66 68 66 63 60 53 48 49 51 50 49 46 43 40 37 35 32 30 28 25 23 22 21 19 18 18 17 15 13 11 11 10 10 10 10 12 13 12 12 12 13 13 13 14 14 15 15 15 15 15 15 15 14 14 14
34 35 39 38 36 34 32 30 29 28 30 31 33 37 40 43 47 50 51 53 54 56 58 60 62 64 66 65 63 62 63 64 66 67 66 63 57 51 50 52 52 52 50 45 42 40 38 35 32 30 28 26 24 22 21 20 20 19 18 17 15 13 11 11 10 9 9 11 11 12 12 12 13 13 13 14 15 15 15 15 15 14 14 14 13 13
34 36 39 38 36 33 29 27 26 26 28 29 31 35 36 38 42 46 50 53 55 57 58 59 61 64 66 66 64 61 62 64 65 67 68 67 63 57 53 53 53 54 53 48 45 44 41 38 35 33 31 29 27 25 23 23 22 21 21 20 18 16 14 13 12 11 10 10 9 10 10 11 11 12 12 13 14 14 15 15 15 15 14 13 13 12
35 37 38 38 35 31 28 25 24 26 27 28 30 32 33 35 38 41 46 52 55 57 58 58 60 63 66 67 66 64 62 63 66 68 68 69 69 63 56 55 55 55 55 52 49 47 43 40 38 36 35 33 31 29 26 25 24 23 23 22 20 19 17 16 14 13 12 12 11 11 10 10 10 11 11 12 12 13 13 14 14 14 14 13 13 12
37 38 38 37 33 29 27 25 24 26 27 27 28 30 31 32 35 38 42 48 53 56 58 59 61 63 65 67 67 67 65 63 64 68 69 70 72 67 61 57 56 57 57 53 52 51 47 44 41 39 38 36 33 32 30 28 26 26 25 24 22 21 20 19 17 16 15 15 14 14 13 13 12 12 12 11 11 11 11 11 12 12 12 12 12 12
39 39 38 36 32 28 26 24 24 25 26 26 27 29 29 31 33 35 38 43 49 54 57 60 62 62 64 67 67 67 67 65 64 67 70 71 73 71 66 60 55 55 58 56 53 53 51 49 46 42 40 39 37 35 33 30 28 28 27 26 24 23 22 21 20 19 18 18 17 16 16 16 16 16 15 14 13 11 11 10 10 11 11 11 12 12
41 39 36 34 30 26 24 24 23 23 25 27 27 28 28 29 32 34 36 40 45 51 55 59 61 62 63 66 67 68 68 66 65 68 71 73 74 72 70 65 57 53 56 57 55 55 53 51 48 46 44 42 40 39 36 33 31 30 29 27 26 25 24 23 22 21 21 20 20 20 19 19 19 20 19 18 16 15 13 12 11 11 11 11 11 11
41 37 33 31 28 25 22 22 22 22 24 26 27 27 27 28 31 33 34 37 42 47 52 56 60 62 63 65 67 69 70 68 67 70 72 73 76 74 69 67 62 55 55 57 57 56 54 52 50 49 47 45 42 40 39 37 35 32 30 29 28 28 27 26 25 24 23 22 22 21 22 22 22 22 22 21 19 18 17 15 14 13 12 11 10 10
37 32 29 28 25 22 20 20 20 21 22 24 26 26 26 27 29 31 32 34 38 43 47 52 58 61 63 66 68 70 71 69 67 70 72 72 75 76 71 67 64 60 56 55 55 55 54 54 53 51 50 47 44 41 40 40 39 36 33 32 31 30 29 29 27 26 25 24 23 23 23 24 24 24 24 23 22 21 20 19 17 15 14 13 12 12
30 26 26 25 22 19 18 18 19 20 20 22 25 25 25 26 28 29 30 31 35 40 44 49 54 59 62 66 68 70 71 70 67 69 72 72 74 77 75 69 66 64 59 55 54 53 54 55 56 54 52 50 46 42 42 43 42 40 37 36 34 32 31 30 29 28 28 27 25 25 25 26 27 27 27 26 25 24 24 22 21 19 17 16 16 16
24 23 24 22 19 17 17 16 16 17 18 21 23 24 24 26 27 28 29 29 32 37 41 45 51 56 61 65 67 68 70 72 71 70 71 73 75 78 78 73 68 67 62 56 55 55 53 53 56 58 56 53 50 46 44 44 44 43 40 39 39 37 34 33 31 29 29 29 28 28 28 28 29 30 30 29 28 27 27 26 24 23 22 21 20 21
21 22 22 20 18 17 15 15 15 16 18 20 21 22 23 24 25 26 28 27 29 33 38 42 47 52 58 63 65 67 69 72 73 72 72 74 76 78 79 75 70 69 65 58 55 58 56 51 51 57 59 57 54 52 50 47 46 45 43 42 41 38 35 34 33 30 29 30 31 32 30 29 32 34 34 32 32 31 30 29 29 27 26 25 24 25
20 20 20 18 18 16 14 14 14 15 16 16 18 20 21 22 24 26 27 26 26 29 34 39 44 49 54 60 64 66 69 72 73 73 73 74 76 78 79 76 71 70 68 62 57 58 59 54 50 52 59 62 58 55 55 51 47 46 45 43 41 38 35 35 34 33 31 31 34 37 37 36 38 38 36 35 35 34 33 32 33 32 31 30 29 29
20 20 19 17 17 15 13 13 13 13 13 13 15 17 19 21 24 26 26 25 25 27 31 36 42 47 52 59 64 67 70 73 74 74 73 73 75 77 77 76 73 72 72 68 60 57 57 57 54 51 54 60 60 57 57 56 51 48 46 44 42 39 39 39 37 36 35 34 37 40 41 41 42 40 37 37 37 36 35 35 35 35 35 35 34 33
19 19 18 16 15 14 13 13 13 12 12 12 12 14 17 21 23 24 24 25 26 27 29 32 38 45 50 56 63 68 71 73 76 76 74 73 75 76 76 76 75 73 74 72 66 60 57 57 57 53 52 56 59 59 58 57 55 51 46 43 41 41 42 43 40 38 37 37 40 42 41 42 44 42 40 39 37 37 37 38 38 38 38 38 38 38
18 17 16 14 14 13 12 12 12 12 11 12 12 12 14 17 20 23 24 24 26 27 28 30 35 41 48 54 61 67 72 73 75 77 75 74 77 78 76 76 75 74 74 73 70 66 60 57 57 56 53 53 54 57 58 57 57 55 50 46 44 43 43 45 43 40 37 39 44 46 44 44 45 46 44 42 39 39 39 39 40 40 40 41 41 41
17 15 14 13 12 12 11 11 11 10 10 12 12 11 11 12 16 21 21 22 25 27 28 30 33 37 45 52 59 65 71 74 74 77 77 75 78 79 78 76 75 74 74 73 71 67 62 58 57 56 53 52 50 50 53 55 56 55 53 52 50 47 46 47 45 41 40 44 49 50 48 47 48 49 48 46 43 41 39 40 41 42 43 44 44 43
15 14 14 13 11 10 10 10 10 8 9 12 12 11 12 12 13 16 17 20 25 26 27 30 32 35 41 49 56 62 68 73 74 75 76 77 79 80 78 77 76 74 73 73 72 69 62 57 57 57 54 54 54 52 51 54 57 56 54 54 53 51 49 47 46 45 45 48 51 50 49 50 52 53 51 48 45 42 40 39 40 42 44 45 45 45
15 14 14 12 10 10 9 8 8 7 8 11 10 10 13 13 12 13 15 19 23 24 25 29 32 34 38 44 52 59 64 71 74 75 75 77 79 80 79 79 78 75 74 73 72 71 67 58 56 60 61 59 58 58 58 58 59 59 58 57 56 55 53 50 50 51 49 48 49 49 47 48 53 56 55 51 47 45 43 42 43 44 44 43 44 44
15 15 14 12 10 9 8 9 8 6 8 12 10 9 12 13 13 13 14 16 19 22 26 29 31 33 35 40 48 56 61 67 73 76 77 78 80 81 81 82 80 77 77 75 69 69 70 63 57 61 66 63 59 59 61 60 59 59 61 62 61 59 57 55 54 55 52 50 52 52 48 48 52 55 56 54 50 48 46 47 48 49 48 47 46 45
16 16 15 13 11 10 10 11 8 6 10 13 10 9 11 12 12 14 14 13 16 21 25 29 30 32 33 35 42 51 58 65 71 76 78 79 81 83 82 83 83 81 80 78 70 66 67 64 60 63 67 67 64 62 59 56 54 55 57 61 64 64 61 59 58 57 54 53 55 53 50 50 53 53 53 54 53 51 50 51 53 53 51 50 50 50
16 16 16 15 13 12 11 9 7 8 13 13 10 10 13 12 12 14 15 14 15 19 24 27 29 30 31 32 36 45 54 62 69 75 78 79 82 84 84 84 84 83 82 80 74 69 66 64 63 66 68 68 68 68 63 57 53 52 52 57 63 66 66 63 62 61 59 57 57 55 52 52 53 53 52 53 53 53 54 55 55 54 53 53 53 53
18 18 18 17 15 14 11 9 11 14 15 13 12 13 15 14 13 15 16 15 15 18 21 24 27 28 30 30 32 38 48 59 67 73 77 79 82 84 85 85 84 82 82 81 78 75 71 67 66 69 70 69 70 72 71 66 62 59 55 55 61 67 69 68 66 65 65 64 63 62 61 59 58 58 58 57 57 56 58 58 56 54 52 51 51 51
21 21 20 18 17 16 14 14 17 18 17 16 16 17 18 16 16 16 16 15 16 19 19 21 24 26 28 29 30 33 42 53 64 71 76 78 81 82 83 85 85 82 81 82 81 79 76 73 71 72 73 71 71 74 77 76 74 72 65 59 60 66 70 72 71 69 68 68 68 68 68 68 67 67 68 67 64 62 62 64 63 60 56 53 52 53
24 23 21 20 20 19 17 17 20 20 19 19 19 19 19 20 19 17 16 15 17 20 20 19 21 24 26 27 28 31 37 47 59 69 74 76 79 81 81 82 84 84 82 82 82 81 79 77 75 75 76 73 71 74 79 81 81 81 76 68 64 66 68 71 73 73 71 71 71 71 72 73 73 73 73 72 69 67 66 69 71 70 68 65 64 64
26 25 24 23 23 23 21 21 22 23 23 23 22 21 22 23 22 19 18 18 19 22 22 21 20 21 24 25 26 28 34 42 53 64 72 74 76 79 81 79 81 85 85 84 82 80 80 81 79 78 78 77 73 75 80 83 83 84 82 77 72 71 70 70 72 74 75 75 74 73 74 76 76 75 74 72 70 68 66 68 73 75 74 72 72 72
28 28 28 27 27 26 25 24 24 24 25 26 25 24 24 25 24 22 21 20 21 22 23 22 21 20 21 24 25 26 30 38 48 58 68 72 74 77 80 78 78 83 88 86 82 79 80 83 84 82 81 80 77 76 79 83 85 86 86 84 81 78 76 75 74 75 75 75 75 75 76 77 78 77 76 74 72 69 66 66 69 71 72 73 73 74
30 31 31 30 29 29 29 28 27 27 27 28 27 26 26 27 26 23 23 23 23 22 22 22 22 20 20 22 24 25 27 33 42 53 64 70 72 75 79 78 77 81 87 88 83 78 78 83 87 88 86 83 81 79 80 82 85 87 89 90 88 85 82 80 79 79 78 77 76 75 76 77 77 77 76 74 72 71 70 69 69 69 70 71 72 74
33 33 33 32 32 33 33 32 32 30 30 30 29 28 28 29 27 25 24 24 25 24 22 22 22 21 20 21 23 25 26 29 36 47 58 66 69 72 77 79 77 78 83 88 86 80 76 80 86 89 90 88 85 83 82 82 83 86 89 92 93 91 87 84 82 82 82 81 80 78 77 77 77 77 77 76 73 72 72 72 71 70 69 70 71 73
35 35 35 35 36 36 36 37 36 33 33 33 32 30 29 29 29 28 27 26 26 25 24 23 22 22 21 20 21 24 26 28 32 41 52 61 66 70 75 78 77 76 79 85 88 85 79 78 82 86 89 90 88 87 86 85 84 84 86 90 93 93 91 88 86 85 85 86 86 85 83 81 80 79 77 76 75 74 73 73 74 73 72 73 74 77
Wind_Direction
235 233 232 231 230 229 229 229 228 225 224 224 222 221 221 221 221 221 221 221 222 224 223 218 216 217 219 222 226 224 218 216 219 221 223 230 246 263 304 348 360 10 18 26 29 27 26 26 28 29 28 25 24 26 32 40 47 52 55 57 61 68 77 81 81 81 83 87 88 86 86 81 74 72 75 80 82 81 84 87 90 93 91 89 88 88
236 235 234 233 231 229 229 229 228 225 225 225 223 221 220 221 221 221 221 220 220 222 221 218 217 216 219 224 225 221 215 213 214 218 216 216 237 252 259 317 339 2 12 17 27 30 28 27 28 30 29 26 24 25 30 39 47 53 56 59 63 69 76 82 84 84 86 89 90 88 87 82 79 81 84 87 87 89 94 95 95 99 98 94 91 89
237 236 236 235 233 231 229 229 228 226 226 226 224 221 220 221 221 220 220 219 220 221 221 219 218 217 219 221 219 215 213 211 212 216 213 206 226 244 246 253 304 2 6 8 18 30 31 28 29 31 31 28 26 25 29 37 47 54 58 62 66 71 77 82 84 86 88 91 93 93 91 91 92 92 91 91 90 94 100 99 98 100 100 95 91 90
237 237 237 237 236 234 231 229 228 227 226 227 225 222 220 221 221 220 220 219 219 221 222 221 219 217 215 212 210 211 212 211 211 215 214 207 218 234 239 246 272 351 7 2 5 24 34 31 30 32 33 31 28 27 28 35 46 55 61 65 69 73 78 83 85 87 91 95 97 100 101 101 99 97 97 97 95 95 100 101 99 98 98 93 90 89
238 237 238 238 237 236 234 231 229 227 227 227 227 223 220 221 221 220 221 220 220 220 221 221 220 217 212 208 208 209 208 211 212 214 216 214 216 226 230 237 249 254 26 5 354 12 34 36 33 34 35 34 31 29 29 34 44 55 62 68 73 76 79 84 88 91 94 97 101 105 106 103 101 100 101 102 99 95 96 100 100 98 96 93 91 90
238 238 238 238 238 238 236 233 231 229 228 227 227 224 222 222 221 221 221 221 220 220 220 219 218 215 212 211 213 212 211 215 218 218 217 214 213 219 223 228 237 239 225 67 346 358 28 42 37 35 37 38 35 32 31 34 43 55 64 70 76 79 82 85 89 93 97 100 103 106 105 102 101 104 104 101 99 96 95 98 99 98 96 95 95 93
238 239 239 239 239 238 237 236 233 231 229 228 227 226 224 223 221 221 221 220 219 219 220 219 217 213 211 211 212 215 217 219 224 223 215 209 208 211 217 224 229 230 231 219 208 339 14 46 46 39 39 41 40 36 33 34 41 53 63 71 77 82 85 88 90 94 98 101 102 103 104 104 101 105 109 104 98 97 97 97 95 96 97 97 97 95
237 239 239 239 239 239 238 237 235 234 231 228 228 227 225 223 220 219 221 220 217 217 218 218 216 213 212 211 212 217 219 214 220 222 212 205 203 204 209 216 225 227 229 236 215 247 325 40 54 48 44 44 43 41 37 36 40 50 62 71 78 83 88 92 94 97 100 102 102 103 105 107 104 103 108 108 103 99 99 99 96 96 98 98 96 96
236 237 238 239 239 240 239 239 237 236 232 228 229 228 226 224 221 218 221 221 217 217 218 215 214 214 213 214 218 221 216 207 214 218 210 202 200 202 204 205 218 226 224 237 235 208 243 350 63 61 54 48 46 46 42 38 40 47 58 69 77 84 88 93 97 100 103 106 106 106 107 110 109 103 103 107 106 102 100 99 99 98 99 99 99 99
235 236 238 239 240 239 239 239 239 238 234 230 230 230 227 225 222 219 220 221 219 220 220 217 215 215 214 214 217 220 213 206 210 214 208 201 198 203 206 201 207 223 224 230 238 222 213 225 99 77 67 57 50 49 48 43 42 47 55 66 75 84 90 94 97 99 102 106 109 109 108 112 114 109 105 108 108 105 102 100 99 99 100 102 103 102
234 236 238 239 240 240 240 239 239 239 237 232 231 230 228 226 224 221 221 221 220 221 222 219 217 217 214 211 212 213 209 206 209 211 206 201 199 204 210 205 201 217 228 225 231 231 213 210 204 125 87 72 58 53 54 51 46 48 54 63 73 82 91 95 97 99 101 105 108 110 110 111 113 113 112 112 111 109 107 104 102 101 102 103 105 104
235 236 239 240 240 241 242 240 239 239 238 235 233 232 229 227 224 222 221 221 221 222 223 220 217 217 215 211 208 207 206 207 209 211 207 202 202 206 211 210 201 208 226 226 225 231 219 208 211 199 149 97 76 61 60 59 53 52 55 61 70 79 89 96 99 100 101 104 108 111 113 112 111 114 117 116 114 112 110 108 105 105 105 105 106 105
237 237 237 240 241 241 243 243 241 240 239 237 235 233 231 227 225 223 221 221 221 221 223 222 218 218 216 211 206 204 205 207 208 211 209 203 204 207 211 213 207 204 217 224 221 226 224 212 210 210 204 174 115 80 69 67 63 59 58 62 67 75 85 95 100 103 104 106 109 112 115 115 114 115 118 119 118 116 114 113 110 108 108 109 109 108
240 242 240 240 241 242 244 244 244 243 240 238 236 235 233 229 227 225 221 221 221 221 223 223 220 218 217 211 207 205 207 209 208 210 212 207 205 209 211 213 211 205 208 220 220 221 224 216 209 212 211 208 195 132 87 77 72 68 65 65 68 73 80 91 99 104 107 109 112 115 117 119 118 118 119 120 120 119 119 118 115 113 113 114 114 113
240 246 248 244 243 243 244 244 243 243 243 240 237 236 234 231 230 227 222 221 221 220 223 224 221 220 217 212 209 208 209 211 208 207 211 210 206 209 213 213 215 211 206 215 221 218 221 219 211 211 212 211 210 191 129 94 85 78 74 70 70 73 78 87 96 104 108 111 113 116 120 123 123 123 122 122 122 122 122 119 117 118 120 120 120 119
242 246 252 251 249 247 246 245 244 243 243 242 240 237 234 233 232 228 224 222 220 219 221 223 222 220 219 214 211 210 211 212 208 205 209 212 208 208 213 215 217 218 209 212 221 218 217 220 215 211 211 211 210 202 185 126 102 92 84 78 75 76 78 84 94 103 109 112 114 118 121 125 127 127 126 125 125 125 124 122 121 122 124 126 127 126
249 249 255 257 256 254 251 249 247 244 242 242 242 239 235 233 232 230 226 223 220 218 220 222 221 220 219 217 214 212 213 214 210 206 209 214 211 206 211 215 217 220 214 210 216 217 216 219 218 215 212 210 209 204 200 179 131 110 99 90 83 82 83 84 91 101 109 114 117 119 122 125 128 131 131 131 131 131 129 128 128 129 130 131 133 134
256 256 261 263 264 263 260 255 251 248 243 240 241 239 237 234 233 231 229 225 221 218 219 221 221 219 219 218 216 214 214 214 212 209 209 214 214 210 211 215 217 219 218 215 215 214 214 217 218 218 215 210 210 207 202 197 171 137 118 107 97 91 90 89 91 97 107 116 120 122 125 127 130 133 136 137 137 136 136 135 136 137 137 137 140 142
262 263 267 270 271 271 268 262 258 254 246 240 239 238 236 235 233 232 230 226 223 219 218 220 220 220 220 218 217 215 214 214 212 210 209 211 215 213 212 214 215 217 219 219 218 213 212 215 216 218 217 213 212 210 204 200 192 171 145 128 115 105 100 99 97 97 103 112 121 126 129 131 134 136 139 142 142 142 142 142 144 145 145 145 146 147
268 270 273 275 277 276 275 271 265 257 249 242 238 236 234 234 233 232 230 228 225 220 218 219 219 220 220 219 218 216 215 214 212 209 206 205 207 209 211 213 213 215 218 220 219 215 213 214 215 216 218 217 214 213 209 203 198 192 175 154 138 126 117 111 108 105 103 106 114 124 132 136 139 141 143 145 146 147 147 147 149 151 153 154 154 155
271 275 277 280 281 281 280 274 264 256 250 244 239 236 233 232 232 231 230 228 226 222 219 218 218 219 220 220 219 218 216 215 213 210 206 204 206 207 209 212 213 213 216 218 217 217 216 216 216 217 218 219 218 215 213 207 202 200 194 179 164 152 141 130 123 117 113 112 113 118 127 136 142 147 150 151 152 153 153 153 154 155 156 158 159 160
272 277 279 281 284 284 280 272 261 254 251 246 242 238 234 231 230 230 229 227 226 224 220 217 217 218 219 219 218 218 217 216 214 211 207 205 208 209 207 210 214 213 214 216 218 219 219 217 217 218 218 219 221 218 215 212 207 205 203 197 188 177 164 154 146 137 129 125 123 123 126 131 140 149 155 159 160 161 162 161 162 162 162 162 163 163
271 276 279 281 284 283 276 266 257 252 250 248 245 241 236 233 231 229 228 227 226 224 222 218 215 216 218 218 217 218 218 218 215 213 209 207 208 209 206 208 215 216 213 215 219 220 220 219 219 219 219 219 221 220 217 217 213 209 208 206 202 197 186 178 174 167 156 146 141 138 138 138 140 147 154 161 166 169 171 171 171 172 171 171 172 170
269 274 278 281 283 280 268 257 254 252 250 249 247 245 241 237 234 231 229 227 225 224 222 220 217 215 216 216 216 215 216 217 216 214 211 209 208 209 207 206 213 218 215 212 216 220 221 221 220 219 220 220 221 220 218 218 217 214 212 210 209 209 205 197 192 190 188 183 173 165 161 158 154 153 155 159 164 169 173 175 178 179 180 181 181 180
268 272 276 280 281 275 261 253 254 255 254 252 251 249 246 242 239 235 232 229 226 224 222 221 219 217 214 214 214 211 212 215 215 214 211 209 210 210 207 206 210 218 219 214 214 219 220 220 220 219 220 221 220 220 218 217 218 217 216 214 213 215 215 212 207 204 204 205 205 202 197 190 183 177 172 170 168 168 169 171 175 178 182 186 187 189
266 270 274 277 276 266 257 255 255 257 258 257 255 254 249 246 242 238 235 231 227 225 222 220 219 218 214 213 213 211 211 213 213 212 210 209 210 210 207 206 209 215 222 219 215 217 218 217 219 221 222 223 222 221 220 217 217 218 219 218 216 217 220 220 218 217 217 216 217 218 220 220 216 209 202 196 189 182 176 172 170 172 177 180 184 188
264 268 272 274 269 258 255 257 257 259 262 260 258 257 253 250 246 241 237 233 229 227 224 221 219 218 216 213 212 211 211 213 213 212 210 208 210 211 207 207 209 213 221 223 217 215 217 217 218 222 224 224 224 224 222 220 218 219 220 220 219 219 222 224 224 224 225 226 226 226 227 230 230 229 226 222 216 208 200 192 186 181 179 179 182 186
264 266 269 269 262 254 255 258 259 260 262 261 260 259 255 253 250 245 239 234 230 227 225 222 219 218 217 215 212 210 211 212 211 211 210 208 209 211 210 209 210 210 217 224 221 214 216 219 220 221 224 225 225 225 224 222 220 219 220 221 221 221 222 225 227 228 230 231 232 233 233 235 236 236 236 234 231 227 223 218 211 205 201 197 196 194
263 264 265 261 254 252 256 260 261 261 261 262 261 259 257 254 252 248 241 236 233 228 225 224 220 218 218 216 212 209 210 211 210 209 210 208 208 211 212 211 210 208 211 222 225 220 217 219 220 222 223 224 225 224 224 223 221 220 219 220 222 223 223 225 228 230 233 235 236 236 238 239 240 240 240 239 238 237 236 234 230 227 224 222 221 218
260 259 256 251 249 252 257 259 262 262 261 262 263 260 259 257 254 250 244 238 235 230 225 224 221 218 218 217 213 210 209 211 210 209 209 208 207 210 213 211 210 208 207 213 222 225 221 219 219 221 222 222 222 222 223 223 222 220 219 219 221 223 224 226 229 232 236 239 240 241 242 243 244 245 244 243 242 242 242 241 240 239 238 238 239 236
255 249 243 242 245 249 254 258 262 264 264 264 263 261 259 258 257 254 247 238 234 230 225 223 222 219 217 217 214 211 209 210 210 209 209 209 207 209 212 211 208 208 205 203 210 219 221 219 219 220 220 221 221 221 222 223 222 220 219 217 218 220 223 225 228 232 237 241 243 244 245 246 246 247 247 246 244 243 243 244 244 244 246 247 247 248
247 236 232 236 241 243 250 259 265 267 266 264 263 260 257 257 257 256 251 241 233 230 224 221 221 219 217 216 214 212 210 210 210 209 209 209 208 209 211 211 208 207 205 201 204 212 217 218 218 218 219 220 220 221 222 223 223 222 220 219 218 217 218 220 223 228 235 241 245 245 247 250 251 250 248 246 246 244 243 244 245 246 248 250 252 253
232 224 226 231 237 242 249 260 266 266 267 267 265 262 257 256 257 256 253 245 235 230 224 219 219 220 218 215 214 213 211 210 210 210 208 208 208 209 211 212 210 206 204 201 204 210 215 217 217 216 217 219 220 221 223 224 224 223 221 222 222 220 219 221 220 221 227 236 243 244 242 241 242 244 244 243 243 243 242 243 246 248 250 252 253 255
220 220 224 228 236 243 249 259 266 271 274 274 271 265 259 255 254 253 252 248 239 231 225 220 218 219 218 214 213 213 212 210 209 209 208 208 208 209 211 213 211 207 204 203 204 208 213 216 217 216 215 217 219 221 222 224 225 225 224 224 225 224 225 226 224 220 221 228 238 242 238 231 231 235 238 239 241 242 243 244 245 247 249 250 251 253
214 219 224 228 237 244 249 257 268 276 281 281 276 267 259 252 251 251 251 249 243 234 227 223 219 219 218 214 211 212 211 210 209 208 207 207 207 208 210 213 212 208 206 207 207 206 208 213 217 217 215 216 217 220 222 223 225 226 225 226 227 226 225 227 227 224 222 223 230 238 241 239 237 237 238 237 239 242 243 245 245 246 248 250 252 254
212 219 225 229 237 243 248 255 264 273 283 289 286 275 263 254 251 251 249 247 245 238 231 227 223 221 220 215 212 212 211 211 210 209 207 207 207 207 209 211 212 211 210 211 211 208 206 210 216 217 216 215 216 218 221 223 225 225 223 224 228 228 228 230 230 228 228 230 232 237 242 244 242 241 240 239 239 241 243 245 247 248 250 253 255 257
215 221 225 229 234 239 244 252 261 270 281 289 295 290 278 265 255 251 248 246 247 244 238 233 227 223 222 218 215 213 212 211 211 210 208 207 207 207 208 209 211 212 213 212 213 211 208 209 214 216 217 218 218 219 221 222 225 226 225 226 230 232 232 233 233 232 232 236 240 241 243 245 244 243 243 243 244 244 244 245 247 248 250 253 256 257
215 217 221 225 227 231 237 247 256 267 278 286 296 303 298 282 262 254 251 248 247 244 241 239 234 227 223 221 218 216 213 212 211 210 209 208 207 207 208 208 210 213 214 213 212 212 212 212 213 213 215 218 219 220 223 225 228 230 231 231 233 234 234 234 235 234 230 234 241 245 245 245 243 242 242 243 246 246 246 247 249 250 250 251 252 254
209 208 214 218 217 222 228 238 249 260 274 284 296 303 299 295 281 267 257 249 247 246 244 243 239 233 227 223 221 218 215 213 212 210 209 209 207 207 207 208 209 212 215 215 213 213 214 215 215 213 212 214 217 218 221 226 230 233 234 235 235 234 232 232 236 238 237 238 241 245 245 242 240 241 241 241 243 246 248 249 250 250 251 251 252 252
202 203 211 211 208 214 221 233 246 252 264 280 295 298 297 304 305 286 264 251 250 249 247 246 242 237 232 227 223 220 216 214 212 211 210 209 208 207 208 209 209 211 215 216 215 214 213 215 216 213 212 213 215 218 221 224 228 232 234 235 235 234 232 231 234 239 242 243 241 242 244 242 239 240 240 239 242 247 249 250 249 249 250 252 255 256
200 205 212 211 210 214 219 234 245 244 257 273 288 292 296 310 314 304 288 268 258 252 249 249 247 242 237 232 226 222 217 214 212 212 211 210 209 208 209 209 210 211 213 215 216 214 213 215 215 212 214 215 214 216 222 225 227 232 235 234 232 233 233 231 232 235 238 240 240 242 245 244 243 243 241 241 245 249 249 250 250 251 250 250 252 255
202 207 214 217 218 219 224 239 254 248 253 269 285 288 296 314 319 315 312 293 271 258 252 251 250 248 243 237 231 225 219 214 212 212 212 212 211 210 209 210 211 212 213 214 215 213 212 214 212 209 213 217 215 215 218 221 222 226 232 232 230 228 230 230 229 230 233 235 239 242 243 243 246 247 245 244 246 247 247 248 250 251 252 251 253 255
209 212 217 221 224 227 232 246 258 246 253 277 298 289 292 309 317 317 322 313 288 269 258 254 253 252 249 244 237 229 222 216 213 212 212 212 212 211 210 210 211 213 214 214 215 213 211 212 210 207 210 215 216 214 214 215 217 219 223 227 226 224 225 227 228 229 232 234 238 240 239 239 242 246 247 247 246 246 245 246 249 252 254 253 254 256
220 221 223 224 228 234 240 247 250 251 264 285 291 280 285 299 304 309 319 321 303 284 271 262 257 255 254 250 242 234 226 219 215 213 213 213 212 212 212 211 211 214 215 215 216 215 213 213 211 207 208 212 214 214 213 213 218 223 225 225 224 223 223 225 226 228 231 235 238 241 241 241 243 247 251 251 250 247 245 245 246 250 252 251 252 254
227 230 231 231 235 241 246 248 253 260 270 275 273 275 284 291 292 299 312 316 308 301 292 278 266 260 257 254 247 239 231 223 218 215 214 213 213 213 214 213 212 214 216 216 216 215 215 215 213 210 208 210 213 214 214 214 219 225 227 225 222 223 224 224 225 227 230 233 237 241 244 246 248 251 253 254 253 250 247 245 244 245 247 248 248 250
233 235 236 238 242 248 252 254 258 264 267 268 271 276 280 281 284 292 300 301 301 306 309 301 283 270 263 258 252 244 235 227 220 216 214 214 215 214 213 213 214 214 215 216 216 216 215 216 215 213 211 212 213 215 217 218 220 224 227 227 225 225 226 227 228 229 230 232 235 239 242 246 248 251 252 254 254 254 252 249 245 244 246 247 249 252
237 239 240 241 244 249 254 258 262 268 269 269 270 270 271 275 280 284 288 289 293 303 312 315 304 286 272 264 257 249 239 230 223 218 215 215 215 214 212 213 215 215 215 216 217 217 216 216 216 215 215 215 215 216 218 220 222 224 227 228 228 228 228 229 231 232 232 234 236 238 240 243 246 247 249 251 253 255 255 252 248 246 247 250 252 254
238 241 243 244 246 249 253 258 264 270 271 268 267 267 268 271 274 278 281 284 289 298 308 315 316 302 283 271 263 256 246 233 224 219 216 215 215 214 212 213 216 216 215 215 216 217 218 218 217 218 219 219 219 218 218 219 221 224 226 228 229 230 230 230 231 232 233 234 236 238 240 242 244 245 246 249 251 252 253 253 251 249 250 252 254 256
238 241 244 248 251 253 256 259 263 267 268 267 266 266 267 269 271 274 277 279 285 293 301 308 314 312 296 279 269 263 255 241 228 220 216 215 215 215 213 213 216 216 215 215 215 217 219 220 220 221 223 224 224 223 221 219 220 223 226 227 228 229 230 230 230 232 232 232 233 235 238 240 242 244 245 247 249 250 251 252 252 251 252 253 255 257
240 242 245 248 252 255 258 260 262 264 266 265 265 266 267 268 270 270 271 275 281 288 294 299 306 310 304 289 274 266 261 250 235 223 218 216 216 215 213 213 216 218 217 216 216 216 219 222 222 222 225 227 228 227 226 223 221 222 225 227 228 228 230 231 231 231 232 232 231 232 235 238 240 243 244 245 247 248 250 251 250 250 251 252 254 256
242 244 246 248 251 254 257 259 261 263 263 263 264 265 265 266 266 267 268 270 275 281 286 291 296 302 303 297 282 268 261 254 242 229 222 218 217 215 213 212 215 219 220 218 218 218 220 223 224 224 226 229 231 231 230 227 225 224 225 227 228 228 229 231 232 232 232 232 232 232 234 236 239 241 244 245 246 246 247 249 250 250 251 253 256 259
Height
10908 10910 10912 10914 10917 10920 10922 10924 10927 10931 10934 10936 10939 10942 10944 10947 10949 10952 10956 10959 10962 10965 10968 10971 10974 10976 10977 10980 10982 10984 10985 10986 10987 10988 10989 10990 10990 10989 10988 10989 10989 10988 10988 10988 10987 10987 10986 10985 10983 10981 10980 10978 10976 10974 10971 10969 10967 10966 10965 10965 10964 10964 10963 10964 10964 10965 10965 10965 10966 10966 10965 10965 10965 10965 10965 10965 10965 10965 10964 10964 10964 10963 10962 10961 10960 10958
10904 10906 10908 10910 10913 10916 10918 10920 10923 10927 10930 10931 10934 10938 10941 10943 10945 10949 10952 10956 10959 10961 10964 10967 10971 10974 10975 10977 10980 10982 10984 10985 10985 10987 10988 10989 10990 10989 10988 10988 10989 10989 10989 10989 10988 10988 10987 10986 10985 10983 10982 10980 10978 10976 10974 10972 10969 10968 10967 10967 10966 10966 10965 10965 10966 10966 10967 10967 10967 10967 10967 10967 10967 10967 10967 10967 10967 10967 10967 10967 10966 10965 10965 10963 10962 10961
10899 10901 10904 10906 10908 10911 10914 10916 10920 10923 10925 10927 10929 10933 10937 10939 10941 10945 10948 10952 10955 10957 10960 10964 10967 10971 10973 10975 10978 10981 10982 10983 10984 10985 10987 10988 10989 10989 10989 10989 10989 10989 10989 10989 10989 10989 10988 10987 10986 10985 10984 10982 10980 10978 10976 10974 10972 10970 10969 10969 10968 10968 10967 10967 10967 10968 10968 10969 10969 10969 10969 10969 10969 10969 10969 10969 10969 10969 10969 10969 10968 10967 10967 10966 10965 10964
10895 10897 10899 10901 10904 10906 10909 10912 10915 10918 10920 10922 10924 10929 10933 10935 10937 10940 10943 10948 10951 10954 10957 10960 10964 10968 10970 10973 10976 10979 10981 10982 10983 10984 10985 10987 10988 10989 10989 10989 10989 10989 10989 10990 10990 10990 10989 10989 10988 10987 10986 10984 10983 10981 10979 10977 10974 10973 10972 10971 10971 10970 10970 10970 10969 10970 10970 10971 10971 10971 10971 10971 10971 10971 10971 10971 10971 10971 10970 10971 10970 10969 10969 10969 10968 10967
10891 10893 10895 10897 10900 10902 10905 10908 10911 10913 10916 10917 10920 10924 10928 10929 10932 10936 10940 10944 10947 10950 10954 10957 10960 10964 10968 10971 10974 10977 10978 10979 10980 10982 10984 10986 10987 10988 10989 10989 10990 10990 10990 10991 10991 10991 10991 10990 10990 10989 10987 10986 10985 10983 10982 10980 10977 10975 10974 10974 10973 10973 10972 10972 10972 10972 10972 10972 10973 10973 10974 10973 10973 10973 10973 10973 10973 10972 10972 10972 10972 10972 10971 10971 10971 10971
10886 10888 10891 10893 10895 10897 10900 10903 10906 10908 10911 10913 10916 10920 10923 10925 10929 10933 10937 10940 10944 10947 10950 10953 10956 10960 10965 10969 10971 10973 10975 10977 10978 10980 10982 10984 10986 10987 10988 10989 10990 10990 10991 10991 10992 10992 10992 10991 10991 10990 10989 10988 10987 10986 10984 10983 10980 10978 10977 10976 10976 10975 10975 10974 10974 10974 10974 10974 10975 10975 10975 10975 10975 10975 10975 10975 10975 10975 10974 10974 10975 10974 10974 10974 10974 10974
10882 10884 10887 10889 10890 10892 10895 10898 10901 10903 10905 10908 10912 10915 10918 10922 10926 10930 10932 10934 10939 10943 10945 10949 10953 10957 10961 10964 10967 10970 10972 10975 10976 10978 10981 10983 10985 10986 10987 10989 10990 10990 10991 10991 10992 10993 10993 10992 10992 10992 10991 10990 10989 10988 10987 10985 10983 10981 10979 10979 10978 10978 10977 10977 10976 10976 10976 10976 10977 10977 10977 10977 10977 10977 10977 10977 10977 10977 10977 10977 10977 10977 10977 10978 10978 10978
10879 10881 10882 10884 10885 10888 10891 10893 10895 10898 10900 10905 10908 10911 10914 10917 10921 10925 10926 10928 10934 10936 10937 10942 10947 10952 10956 10959 10963 10967 10970 10973 10975 10976 10979 10981 10983 10985 10986 10988 10989 10990 10991 10992 10993 10993 10993 10993 10993 10993 10993 10992 10991 10990 10989 10988 10986 10984 10982 10981 10981 10980 10980 10979 10979 10978 10978 10979 10979 10979 10979 10979 10979 10979 10979 10979 10980 10980 10980 10980 10980 10980 10981 10981 10981 10981
10875 10876 10877 10879 10881 10884 10886 10888 10891 10892 10895 10901 10905 10906 10909 10912 10916 10920 10920 10923 10928 10929 10929 10936 10942 10946 10952 10955 10959 10963 10966 10970 10972 10974 10977 10979 10982 10983 10985 10987 10988 10990 10991 10992 10993 10993 10994 10994 10995 10994 10994 10994 10993 10992 10991 10990 10989 10987 10985 10984 10983 10983 10982 10982 10981 10981 10981 10981 10981 10981 10981 10981 10981 10981 10981 10982 10982 10982 10983 10983 10983 10984 10984 10985 10985 10985
10872 10872 10873 10876 10878 10879 10881 10883 10885 10887 10891 10897 10899 10900 10903 10906 10911 10915 10916 10919 10924 10924 10927 10934 10939 10942 10947 10951 10955 10959 10963 10967 10969 10971 10975 10977 10980 10982 10983 10985 10987 10989 10991 10992 10993 10994 10994 10995 10995 10995 10995 10995 10995 10994 10993 10993 10992 10990 10988 10987 10986 10985 10985 10984 10984 10984 10984 10983 10983 10983 10983 10983 10984 10984 10984 10985 10985 10985 10986 10986 10986 10987 10987 10988 10988 10988
10868 10869 10870 10872 10873 10875 10876 10878 10881 10882 10887 10891 10893 10895 10898 10901 10905 10910 10912 10915 10919 10920 10923 10930 10935 10938 10943 10948 10951 10956 10960 10964 10966 10969 10972 10975 10977 10980 10982 10984 10986 10988 10990 10991 10993 10994 10995 10995 10995 10996 10996 10996 10996 10996 10995 10994 10994 10993 10991 10989 10988 10988 10987 10987 10987 10986 10986 10986 10986 10986 10986 10986 10986 10987 10987 10988 10988 10988 10989 10989 10989 10990 10990 10991 10991 10991
10865 10866 10867 10868 10870 10871 10871 10874 10876 10878 10882 10885 10887 10890 10893 10896 10900 10904 10908 10911 10913 10915 10918 10924 10929 10933 10939 10944 10949 10953 10956 10960 10963 10966 10970 10972 10975 10977 10980 10983 10985 10987 10989 10991 10992 10994 10994 10995 10995 10996 10997 10997 10997 10997 10997 10996 10996 10995 10994 10992 10991 10990 10990 10989 10989 10989 10989 10989 10989 10989 10989 10989 10990 10990 10990 10990 10991 10991 10992 10992 10992 10992 10993 10993 10994 10994
10861 10863 10864 10864 10866 10867 10868 10870 10873 10874 10877 10879 10881 10884 10888 10891 10895 10898 10902 10905 10908 10911 10913 10918 10925 10929 10934 10941 10946 10950 10953 10957 10960 10963 10966 10969 10972 10975 10977 10980 10983 10985 10988 10990 10991 10993 10994 10995 10995 10996 10997 10998 10998 10998 10998 10998 10997 10997 10996 10994 10993 10993 10992 10992 10991 10991 10991 10991 10991 10992 10992 10992 10992 10993 10993 10993 10994 10994 10994 10995 10995 10995 10995 10996 10996 10996
10859 10860 10861 10861 10862 10864 10865 10867 10869 10870 10871 10873 10876 10880 10882 10886 10889 10892 10897 10900 10903 10906 10909 10914 10921 10925 10930 10938 10942 10946 10950 10953 10956 10958 10961 10965 10968 10971 10974 10978 10980 10983 10986 10988 10990 10992 10993 10994 10995 10996 10997 10998 10998 10999 10999 10999 10999 10999 10998 10997 10996 10995 10994 10994 10994 10994 10993 10994 10994 10994 10994 10995 10995 10996 10996 10996 10996 10997 10997 10997 10997 10998 10998 10998 10999 10999
10856 10857 10856 10857 10859 10861 10862 10862 10864 10865 10866 10869 10872 10873 10876 10882 10884 10886 10891 10894 10897 10903 10906 10910 10917 10921 10927 10933 10937 10941 10945 10948 10952 10955 10957 10960 10964 10967 10971 10974 10978 10980 10983 10986 10988 10990 10992 10993 10994 10995 10996 10997 10998 10999 10999 11000 11000 11000 11000 10999 10998 10997 10996 10996 10996 10996 10996 10996 10996 10997 10997 10997 10998 10998 10999 10999 10999 10999 10999 11000 11000 11000 11000 11001 11001 11001
10853 10854 10853 10854 10855 10856 10857 10858 10859 10861 10863 10865 10866 10867 10873 10876 10876 10880 10884 10887 10892 10899 10901 10904 10911 10917 10922 10927 10930 10935 10940 10944 10948 10951 10954 10957 10961 10964 10967 10971 10975 10978 10981 10983 10986 10989 10990 10992 10993 10994 10995 10997 10998 10999 11000 11000 11000 11001 11001 11001 11000 10999 10998 10998 10998 10998 10998 10998 10998 10999 10999 10999 11000 11000 11001 11001 11001 11001 11002 11002 11002 11002 11003 11003 11003 11004
10848 10850 10849 10850 10850 10851 10852 10853 10854 10856 10859 10860 10861 10863 10867 10869 10870 10874 10878 10881 10887 10892 10894 10897 10904 10909 10913 10919 10924 10929 10934 10938 10943 10947 10950 10954 10958 10961 10964 10968 10972 10975 10978 10981 10983 10987 10989 10990 10992 10993 10994 10996 10997 10998 10999 11000 11001 11001 11001 11002 11001 11001 11000 11000 10999 10999 10999 10999 11000 11000 11001 11001 11001 11002 11002 11003 11003 11003 11003 11004 11004 11004 11005 11005 11006 11006
10843 10845 10845 10845 10846 10846 10846 10847 10849 10851 10853 10855 10856 10858 10860 10862 10866 10868 10871 10875 10881 10886 10889 10892 10896 10901 10905 10911 10917 10922 10927 10933 10939 10943 10947 10951 10955 10958 10962 10965 10969 10972 10974 10977 10981 10984 10987 10989 10990 10992 10993 10995 10996 10997 10998 11000 11001 11001 11001 11002 11002 11002 11002 11001 11001 11001 11001 11001 11001 11001 11002 11002 11003 11003 11004 11004 11004 11005 11005 11005 11006 11006 11006 11007 11007 11008
10838 10840 10840 10841 10842 10840 10839 10842 10845 10845 10847 10849 10850 10852 10854 10857 10860 10862 10864 10869 10874 10879 10883 10885 10890 10896 10900 10905 10910 10915 10921 10928 10934 10939 10943 10948 10952 10955 10958 10962 10966 10969 10972 10975 10979 10982 10985 10986 10988 10990 10992 10993 10995 10996 10997 10999 11001 11001 11001 11002 11002 11003 11003 11002 11002 11002 11002 11002 11002 11002 11003 11003 11003 11004 11004 11005 11005 11006 11006 11006 11007 11007 11008 11008 11009 11009
10833 10835 10835 10836 10836 10834 10834 10838 10840 10838 10839 10842 10844 10846 10849 10851 10853 10856 10859 10863 10867 10872 10876 10879 10884 10890 10893 10898 10903 10908 10915 10923 10929 10934 10939 10944 10947 10951 10955 10958 10963 10966 10969 10973 10977 10979 10982 10984 10986 10989 10990 10992 10994 10995 10996 10998 10999 11001 11001 11001 11002 11002 11003 11003 11003 11003 11003 11003 11003 11003 11003 11004 11004 11005 11005 11005 11006 11006 11007 11007 11008 11008 11009 11009 11010 11011
10829 10830 10829 10830 10830 10830 10831 10832 10832 10831 10833 10835 10838 10840 10842 10844 10847 10850 10853 10856 10860 10864 10868 10873 10879 10883 10886 10892 10899 10905 10911 10918 10924 10929 10934 10938 10942 10946 10950 10954 10959 10963 10967 10971 10975 10977 10980 10982 10985 10987 10989 10990 10992 10994 10995 10996 10998 10999 11001 11001 11001 11002 11003 11003 11004 11004 11004 11004 11004 11004 11004 11004 11005 11005 11005 11006 11006 11007 11008 11008 11009 11009 11010 11010 11011 11012
10826 10826 10824 10825 10825 10825 10826 10825 10825 10827 10828 10830 10832 10833 10836 10838 10841 10843 10847 10850 10853 10857 10861 10866 10872 10876 10880 10887 10894 10901 10907 10912 10918 10924 10929 10934 10939 10943 10947 10950 10954 10959 10964 10968 10972 10975 10978 10980 10982 10985 10987 10989 10990 10992 10994 10995 10996 10998 10999 11000 11001 11001 11002 11003 11004 11004 11004 11004 11004 11005 11005 11005 11005 11005 11006 11006 11007 11007 11008 11009 11009 11010 11010 11011 11012 11012
10823 10821 10819 10820 10821 10821 10821 10820 10821 10823 10823 10824 10826 10826 10829 10832 10834 10837 10840 10843 10846 10849 10853 10859 10864 10869 10874 10881 10889 10897 10903 10909 10914 10919 10925 10931 10935 10939 10943 10946 10949 10953 10959 10965 10969 10972 10975 10978 10980 10982 10984 10986 10988 10990 10992 10994 10995 10996 10997 10999 11000 11000 11001 11002 11003 11004 11005 11005 11005 11005 11005 11005 11005 11005 11005 11006 11006 11007 11008 11009 11009 11010 11011 11011 11012 11013
10819 10817 10815 10816 10816 10816 10817 10817 10818 10818 10818 10820 10820 10821 10824 10827 10828 10831 10833 10835 10838 10842 10847 10853 10858 10862 10867 10874 10883 10890 10896 10901 10907 10913 10919 10925 10929 10933 10937 10941 10944 10947 10953 10960 10964 10967 10971 10975 10977 10979 10981 10983 10985 10987 10990 10991 10993 10994 10995 10997 10998 10999 11000 11001 11002 11003 11004 11004 11004 11005 11005 11005 11006 11006 11006 11006 11006 11007 11008 11008 11009 11010 11011 11012 11013 11014
10814 10812 10812 10812 10812 10812 10812 10814 10814 10814 10814 10815 10816 10817 10820 10822 10823 10825 10826 10828 10832 10836 10841 10847 10851 10855 10861 10867 10874 10880 10885 10890 10897 10904 10912 10918 10923 10927 10932 10936 10939 10941 10947 10954 10958 10962 10967 10971 10973 10975 10977 10979 10982 10984 10986 10989 10991 10992 10994 10995 10996 10998 10999 11000 11001 11002 11003 11003 11004 11004 11004 11005 11006 11006 11006 11006 11007 11007 11008 11009 11010 11011 11011 11012 11013 11014
10809 10808 10808 10808 10808 10808 10808 10810 10810 10810 10810 10811 10812 10813 10815 10816 10818 10820 10821 10822 10826 10829 10834 10839 10843 10848 10855 10861 10866 10872 10878 10882 10888 10895 10903 10910 10915 10920 10927 10932 10935 10938 10942 10948 10953 10957 10961 10965 10969 10971 10974 10976 10979 10981 10983 10986 10988 10990 10991 10993 10994 10995 10997 10998 10999 11000 11001 11002 11002 11003 11003 11004 11005 11006 11006 11007 11007 11008 11008 11009 11010 11011 11011 11012 11013 11014
10804 10805 10804 10804 10804 10804 10805 10805 10806 10806 10806 10807 10808 10808 10810 10811 10812 10813 10815 10817 10819 10822 10826 10831 10836 10842 10849 10854 10859 10867 10873 10877 10882 10888 10895 10901 10906 10912 10921 10928 10934 10937 10939 10943 10948 10953 10956 10960 10964 10967 10970 10973 10976 10978 10981 10983 10985 10987 10989 10991 10992 10993 10994 10996 10997 10998 10999 11000 11000 11001 11002 11002 11003 11004 11005 11006 11007 11008 11009 11009 11010 11011 11011 11012 11012 11013
10799 10801 10800 10800 10800 10801 10802 10801 10802 10803 10803 10803 10803 10804 10805 10806 10806 10807 10809 10811 10813 10815 10819 10825 10831 10837 10842 10846 10853 10861 10865 10869 10875 10881 10886 10893 10898 10905 10913 10921 10927 10933 10937 10939 10944 10949 10952 10956 10960 10964 10966 10969 10972 10974 10978 10981 10983 10984 10986 10988 10989 10990 10991 10992 10994 10995 10996 10997 10998 10999 11000 11001 11001 11002 11003 11005 11006 11008 11008 11009 11010 11010 11011 11012 11013 11013
10794 10796 10796 10796 10796 10797 10798 10798 10799 10799 10799 10799 10799 10799 10801 10801 10801 10802 10804 10806 10807 10810 10814 10819 10824 10830 10834 10838 10845 10852 10856 10861 10867 10873 10879 10886 10894 10901 10907 10912 10917 10924 10932 10936 10940 10946 10950 10953 10956 10959 10962 10965 10968 10971 10974 10977 10979 10981 10983 10984 10985 10986 10987 10989 10990 10992 10993 10995 10996 10997 10998 10998 10999 11000 11001 11003 11005 11006 11007 11008 11009 11010 11011 11012 11012 11013
10789 10791 10792 10792 10793 10794 10794 10794 10795 10795 10795 10795 10794 10795 10796 10796 10796 10797 10798 10801 10802 10804 10809 10813 10817 10823 10826 10830 10837 10844 10849 10855 10862 10868 10874 10881 10888 10895 10900 10905 10910 10915 10921 10927 10933 10940 10946 10949 10952 10954 10957 10961 10964 10967 10970 10972 10974 10976 10978 10980 10981 10982 10984 10985 10987 10989 10991 10992 10993 10995 10995 10996 10997 10997 10999 11000 11002 11003 11004 11006 11006 11008 11009 11010 11011 11012
10784 10787 10787 10788 10789 10790 10790 10791 10791 10791 10792 10792 10791 10791 10792 10791 10792 10792 10793 10795 10796 10799 10803 10807 10810 10815 10818 10822 10829 10837 10844 10851 10857 10862 10869 10875 10882 10887 10892 10899 10905 10908 10912 10916 10921 10927 10934 10941 10946 10950 10953 10956 10960 10963 10965 10967 10969 10971 10973 10974 10975 10976 10978 10981 10983 10986 10987 10989 10991 10992 10992 10993 10993 10994 10995 10997 10999 11000 11001 11002 11003 11005 11006 11007 11008 11009
10781 10782 10783 10785 10786 10787 10787 10788 10788 10789 10789 10788 10787 10787 10787 10787 10787 10787 10788 10790 10792 10794 10797 10801 10804 10808 10811 10817 10825 10832 10840 10846 10850 10855 10862 10868 10874 10879 10884 10891 10898 10905 10910 10913 10915 10918 10923 10931 10938 10944 10948 10951 10955 10959 10960 10962 10965 10967 10969 10969 10968 10968 10971 10975 10978 10981 10984 10986 10987 10988 10989 10989 10990 10990 10991 10993 10994 10996 10997 10998 10999 11001 11002 11003 11005 11005
10777 10779 10781 10782 10783 10784 10785 10785 10785 10785 10785 10784 10783 10783 10783 10784 10784 10783 10783 10785 10787 10789 10792 10796 10799 10802 10806 10814 10821 10827 10833 10839 10844 10849 10855 10861 10867 10873 10879 10886 10893 10902 10909 10912 10913 10916 10920 10925 10930 10936 10941 10945 10949 10952 10955 10958 10960 10962 10965 10966 10966 10968 10970 10971 10974 10977 10981 10984 10984 10983 10983 10983 10982 10983 10986 10988 10989 10991 10993 10994 10995 10997 10998 11000 11001 11001
10774 10776 10778 10779 10780 10781 10782 10782 10782 10782 10781 10781 10780 10780 10780 10780 10780 10779 10780 10782 10784 10786 10788 10791 10794 10797 10801 10808 10814 10819 10825 10831 10836 10842 10848 10854 10860 10867 10874 10881 10889 10898 10904 10907 10910 10913 10917 10922 10925 10929 10933 10937 10942 10947 10950 10953 10956 10958 10961 10964 10966 10969 10971 10971 10972 10975 10978 10980 10980 10978 10976 10974 10973 10976 10980 10983 10985 10987 10989 10990 10991 10993 10994 10995 10997 10997
10772 10773 10775 10776 10777 10778 10779 10779 10779 10779 10778 10778 10777 10776 10776 10776 10776 10776 10777 10779 10780 10782 10783 10786 10789 10792 10794 10800 10806 10811 10817 10823 10828 10834 10842 10848 10854 10861 10867 10873 10881 10890 10896 10900 10905 10908 10912 10917 10921 10926 10929 10933 10938 10942 10944 10948 10951 10954 10958 10962 10964 10968 10969 10969 10970 10972 10974 10975 10974 10972 10972 10973 10974 10975 10978 10980 10981 10983 10984 10986 10987 10989 10990 10992 10993 10993
10769 10770 10772 10773 10774 10775 10776 10777 10777 10776 10776 10775 10774 10774 10773 10773 10773 10773 10774 10775 10776 10778 10780 10782 10785 10787 10789 10794 10800 10804 10809 10815 10821 10827 10836 10842 10848 10853 10860 10866 10874 10881 10887 10892 10897 10902 10907 10912 10917 10922 10926 10930 10934 10937 10940 10944 10947 10950 10955 10959 10961 10964 10966 10966 10967 10969 10971 10972 10969 10969 10971 10972 10974 10975 10975 10977 10979 10980 10981 10982 10984 10986 10988 10989 10990 10991
10766 10768 10769 10770 10771 10772 10773 10774 10774 10774 10773 10772 10772 10771 10771 10770 10770 10770 10771 10773 10773 10775 10778 10779 10780 10783 10786 10790 10795 10798 10803 10809 10814 10822 10830 10836 10841 10847 10854 10861 10867 10873 10878 10884 10890 10896 10901 10906 10912 10918 10924 10928 10932 10935 10938 10942 10944 10947 10952 10956 10957 10958 10960 10962 10962 10965 10968 10969 10966 10966 10969 10970 10971 10972 10973 10974 10976 10977 10978 10979 10981 10983 10985 10986 10987 10987
10763 10765 10767 10768 10769 10770 10771 10771 10771 10771 10771 10770 10769 10769 10769 10768 10767 10767 10769 10771 10771 10772 10774 10775 10776 10779 10781 10785 10788 10792 10798 10804 10809 10817 10825 10830 10836 10843 10850 10856 10861 10866 10871 10877 10884 10890 10896 10902 10907 10915 10922 10928 10932 10935 10938 10940 10941 10943 10947 10951 10952 10953 10955 10957 10958 10960 10963 10963 10961 10962 10965 10967 10967 10968 10968 10970 10971 10972 10974 10975 10977 10979 10980 10981 10982 10983
10761 10763 10764 10765 10766 10767 10768 10768 10768 10768 10768 10767 10767 10767 10766 10765 10765 10765 10767 10768 10767 10769 10771 10772 10772 10774 10776 10779 10782 10786 10793 10799 10805 10813 10820 10826 10833 10840 10846 10851 10855 10860 10865 10870 10877 10884 10891 10897 10903 10911 10918 10924 10928 10931 10933 10933 10935 10937 10941 10944 10946 10948 10950 10953 10955 10956 10957 10957 10958 10959 10961 10962 10962 10962 10964 10966 10967 10967 10969 10971 10973 10974 10974 10976 10978 10979
10759 10761 10762 10763 10764 10765 10766 10766 10766 10766 10766 10765 10765 10764 10763 10763 10763 10763 10764 10764 10765 10767 10767 10766 10767 10768 10771 10773 10776 10780 10787 10794 10801 10808 10815 10821 10828 10835 10840 10844 10849 10854 10859 10864 10871 10878 10884 10891 10898 10904 10910 10915 10919 10922 10922 10922 10925 10928 10932 10937 10940 10943 10945 10948 10950 10951 10951 10953 10953 10953 10954 10956 10957 10958 10959 10961 10962 10963 10965 10967 10968 10969 10970 10972 10974 10975
10757 10758 10759 10760 10762 10762 10763 10763 10763 10764 10764 10763 10762 10762 10761 10761 10761 10761 10761 10762 10763 10763 10763 10761 10762 10764 10766 10769 10771 10775 10781 10788 10795 10802 10808 10813 10819 10826 10831 10836 10842 10847 10851 10857 10865 10872 10879 10885 10892 10896 10901 10905 10910 10912 10914 10916 10919 10921 10924 10928 10932 10936 10939 10942 10944 10944 10946 10947 10946 10947 10951 10952 10951 10952 10954 10956 10958 10959 10961 10962 10962 10963 10965 10967 10970 10971
10755 10756 10757 10758 10759 10760 10760 10760 10761 10762 10761 10760 10760 10760 10760 10759 10759 10759 10759 10760 10760 10759 10758 10758 10759 10760 10762 10764 10767 10771 10776 10782 10788 10794 10799 10804 10809 10815 10821 10827 10833 10838 10844 10852 10860 10867 10874 10880 10886 10890 10892 10896 10900 10903 10906 10911 10914 10914 10915 10918 10922 10927 10931 10934 10936 10936 10938 10939 10939 10943 10947 10946 10945 10947 10950 10951 10952 10954 10955 10955 10955 10957 10960 10962 10964 10964
10752 10753 10754 10755 10756 10757 10757 10758 10759 10759 10758 10757 10757 10758 10757 10757 10758 10757 10757 10757 10756 10755 10754 10755 10756 10757 10758 10761 10763 10767 10771 10776 10780 10785 10790 10796 10801 10807 10813 10819 10826 10832 10839 10848 10855 10862 10869 10875 10881 10884 10886 10888 10891 10895 10899 10902 10904 10904 10905 10907 10911 10916 10921 10925 10928 10930 10931 10931 10933 10937 10939 10938 10938 10941 10943 10943 10944 10947 10949 10949 10950 10952 10954 10956 10957 10957
10749 10750 10751 10752 10753 10753 10754 10755 10755 10755 10755 10755 10755 10755 10754 10755 10756 10756 10755 10755 10753 10751 10751 10752 10753 10754 10755 10757 10759 10762 10765 10769 10773 10777 10782 10788 10794 10801 10808 10815 10822 10828 10835 10842 10848 10854 10862 10868 10873 10877 10879 10880 10883 10886 10889 10892 10893 10894 10896 10898 10902 10906 10911 10915 10919 10921 10922 10924 10926 10929 10930 10930 10931 10933 10933 10935 10938 10941 10943 10943 10945 10947 10948 10949 10951 10951
10746 10747 10748 10749 10750 10750 10751 10752 10752 10752 10752 10753 10753 10752 10752 10752 10753 10753 10754 10753 10751 10748 10748 10749 10750 10751 10752 10753 10755 10757 10760 10762 10766 10770 10776 10782 10788 10794 10802 10810 10817 10823 10828 10834 10840 10846 10853 10858 10864 10869 10871 10872 10875 10878 10881 10884 10885 10884 10887 10891 10894 10898 10901 10904 10908 10911 10914 10917 10919 10920 10921 10922 10923 10923 10924 10927 10931 10934 10936 10937 10939 10940 10941 10943 10944 10945
10742 10743 10745 10746 10746 10747 10748 10749 10748 10749 10750 10750 10750 10750 10749 10749 10750 10751 10751 10751 10748 10746 10746 10747 10748 10748 10749 10750 10751 10752 10753 10755 10759 10763 10769 10775 10781 10789 10796 10803 10808 10814 10819 10825 10832 10839 10844 10849 10855 10860 10864 10866 10869 10872 10874 10876 10877 10877 10880 10885 10889 10891 10894 10897 10900 10903 10906 10908 10910 10912 10913 10914 10915 10916 10917 10919 10923 10926 10928 10929 10931 10932 10933 10935 10936 10937
10739 10740 10741 10742 10743 10744 10744 10745 10745 10745 10746 10747 10747 10747 10747 10746 10747 10748 10748 10748 10746 10744 10743 10745 10745 10745 10745 10745 10746 10747 10748 10749 10752 10756 10762 10769 10775 10782 10790 10795 10799 10804 10810 10817 10825 10832 10837 10841 10846 10850 10854 10857 10860 10863 10865 10868 10870 10872 10875 10880 10883 10885 10887 10890 10892 10895 10897 10900 10902 10904 10905 10906 10908 10909 10911 10912 10914 10916 10919 10920 10922 10923 10926 10927 10929 10929
10735 10736 10736 10738 10739 10740 10740 10741 10742 10742 10743 10743 10743 10744 10744 10743 10744 10745 10745 10745 10744 10743 10742 10742 10742 10742 10741 10741 10742 10743 10743 10744 10746 10749 10755 10762 10769 10776 10783 10788 10792 10796 10803 10810 10818 10824 10829 10833 10837 10840 10843 10846 10849 10853 10855 10859 10863 10866 10869 10872 10874 10877 10879 10882 10884 10886 10888 10891 10893 10896 10898 10899 10901 10903 10904 10906 10907 10909 10911 10913 10914 10916 10918 10919 10920 10920
10730 10731 10732 10734 10735 10735 10736 10737 10738 10738 10738 10738 10739 10740 10740 10740 10740 10741 10742 10742 10742 10742 10741 10740 10740 10739 10738 10737 10738 10739 10739 10739 10741 10744 10749 10755 10762 10770 10776 10781 10785 10789 10796 10803 10811 10817 10821 10824 10828 10832 10835 10837 10841 10844 10846 10849 10855 10859 10861 10862 10864 10867 10871 10873 10875 10877 10880 10882 10885 10888 10891 10893 10894 10896 10898 10899 10900 10902 10904 10905 10907 10908 10909 10910 10911 10912
10725 10726 10728 10730 10730 10731 10732 10732 10733 10734 10734 10734 10735 10736 10737 10736 10737 10737 10738 10739 10739 10739 10739 10738 10737 10737 10736 10734 10734 10735 10736 10736 10738 10741 10745 10750 10756 10763 10769 10774 10779 10783 10789 10797 10804 10810 10814 10816 10820 10824 10826 10828 10831 10834 10836 10841 10846 10850 10851 10852 10855 10859 10863 10865 10867 10870 10873 10875 10877 10880 10883 10885 10887 10889 10891 10892 10893 10894 10896 10897 10899 10900 10901 10901 10902 10903
10721 10722 10724 10725 10725 10726 10727 10727 10728 10730 10730 10729 10730 10732 10732 10733 10733 10733 10734 10735 10736 10736 10736 10736 10736 10735 10734 10733 10732 10732 10733 10734 10736 10738 10741 10745 10750 10756 10762 10767 10772 10777 10782 10789 10796 10802 10806 10808 10812 10815 10817 10818 10821 10824 10829 10833 10836 10839 10842 10844 10846 10852 10857 10859 10860 10863 10865 10867 10869 10871 10874 10877 10879 10881 10883 10884 10886 10887 10888 10889 10890 10891 10892 10893 10893 10894